User: anonymous   Login
Location: Bergheim
(50.9593°N, 6.6400°E)
Time: 10:11:35
(UTC+01:00)
Language:

ISS - Orbit

View from above orbital plane
View from above orbital plane
View from above satellite
View from above satellite

Ground track
Ground track

The orbit data is extracted from the following two-line orbital elements,

1 25544U 98067A   19018.51475110  .00016717  00000-0  10270-3 0  9022
2 25544  51.6396  25.6635 0002563 305.6792  54.4122 15.53747440 31997
Epoch (UTC): 18 January 2019 12:21:14
Eccentricity: 0.0002563
inclination: 51.6396°
perigee height: 404 km
apogee height: 407 km
right ascension of ascending node: 25.6635°
argument of perigee: 305.6792°
revolutions per day: 15.53747440
mean anomaly at epoch: 54.4122°
orbit number at epoch: 3199

The dashed part of the orbit path shows where the satellite is in the earth's shadow,  

DLR